| time (UTC) | temp F | wind direction | speed knots | gust knots | rain 1hr in | rain 24hr in | rain mn in | humidity % | barometer mb |
| 20260510061537 | 71 | 121 | 2.6 | 6.1 | 0.00 | 0.00 | 0.00 | 94 | 1011.9 |
| 20260510060032 | 71 | 113 | 2.6 | 5.2 | 0.00 | 0.00 | 0.00 | 93 | 1012.0 |
| 20260510054530 | 72 | 142 | 2.6 | 6.1 | 0.00 | 0.00 | 0.00 | 92 | 1012.0 |
| 20260510053047 | 73 | 144 | 4.3 | 8.7 | 0.00 | 0.00 | 0.00 | 91 | 1011.9 |
| 20260510051525 | 73 | 147 | 7.0 | 10.4 | 0.00 | 0.00 | 0.00 | 91 | 1011.8 |
| 20260510050028 | 73 | 140 | 7.8 | 13.0 | 0.00 | 0.00 | 0.00 | 90 | 1011.7 |
| 20260510044521 | 74 | 121 | 8.7 | 13.0 | 0.00 | 0.00 | 0.00 | 91 | 1011.9 |
| 20260510043036 | 73 | 107 | 8.7 | 11.3 | 0.00 | 0.00 | 0.00 | 92 | 1011.9 |
| 20260510041525 | 73 | 108 | 7.0 | 10.4 | 0.00 | 0.00 | 0.00 | 91 | 1012.0 |
| 20260510040032 | 74 | 111 | 6.1 | 11.3 | 0.00 | 0.00 | 0.00 | 89 | 1011.9 |
| 20260510034518 | 75 | 103 | 6.1 | 8.7 | 0.00 | 0.00 | 0.00 | 89 | 1011.7 |
| 20260510033017 | 74 | 98 | 6.1 | 9.6 | 0.00 | 0.00 | 0.00 | 89 | 1011.6 |
| 20260510031522 | 75 | 104 | 0.0 | 6.1 | 0.00 | 0.00 | 0.00 | 89 | 1010.9 |
| 20260510030017 | 76 | 205 | 3.5 | 6.1 | 0.00 | 0.00 | 0.00 | 85 | 1010.2 |
| 20260510024517 | 77 | 122 | 0.0 | 1.7 | 0.00 | 0.00 | 0.00 | 81 | 1010.3 |
| 20260510023013 | 77 | 130 | 3.5 | 8.7 | 0.00 | 0.00 | 0.00 | 81 | 1010.0 |
| 20260510021525 | 76 | 113 | 7.0 | 13.0 | 0.00 | 0.00 | 0.00 | 83 | 1010.0 |
| 20260510020012 | 75 | 115 | 10.4 | 15.6 | 0.00 | 0.00 | 0.00 | 82 | 1009.9 |
| 20260510014511 | 76 | 107 | 8.7 | 14.8 | 0.00 | 0.00 | 0.00 | 82 | 1009.7 |
| 20260510013019 | 76 | 111 | 9.6 | 13.9 | 0.00 | 0.00 | 0.00 | 79 | 1009.5 |
| 20260510011509 | 79 | 86 | 7.0 | 13.0 | 0.00 | 0.00 | 0.00 | 76 | 1009.3 |
| 20260510010008 | 82 | 86 | 0.0 | 2.6 | 0.00 | 0.00 | 0.00 | 85 | 1008.9 |
| 20260510004509 | 83 | 120 | 0.0 | 0.0 | 0.00 | 0.00 | 0.00 | 81 | 1008.9 |
| 20260510003008 | 82 | 120 | 0.0 | 3.5 | 0.00 | 0.00 | 0.00 | 82 | 1008.8 |
| 20260510001509 | 83 | 163 | 0.0 | 3.5 | 0.00 | 0.00 | 0.00 | 79 | 1008.6 |
| 20260510000006 | 83 | 15 | 0.0 | 2.6 | 0.00 | 0.00 | 0.00 | 81 | 1008.7 |
| 20260509234506 | 85 | 46 | 0.9 | 5.2 | 0.00 | 0.00 | 0.00 | 79 | 1008.5 |
| 20260509233005 | 85 | 151 | 1.7 | 4.3 | 0.00 | 0.00 | 0.00 | 75 | 1008.4 |
| 20260509231505 | 86 | 148 | 0.0 | 2.6 | 0.00 | 0.00 | 0.00 | 73 | 1008.6 |
| 20260509230008 | 87 | 148 | 1.7 | 3.5 | 0.00 | 0.00 | 0.00 | 69 | 1008.5 |
| 20260509224507 | 87 | 110 | 1.7 | 6.1 | 0.00 | 0.00 | 0.00 | 69 | 1008.8 |
| 20260509223003 | 88 | 104 | 0.9 | 6.1 | 0.00 | 0.00 | 0.00 | 68 | 1008.5 |
| 20260509221601 | 88 | 137 | 0.9 | 8.7 | 0.00 | 0.00 | 0.00 | 68 | 1008.1 |
| 20260509214628 | 87 | 175 | 0.0 | 0.0 | 0.00 | 0.00 | 0.00 | 70 | 1008.2 |
| 20260509213054 | 87 | 243 | 0.9 | 2.6 | 0.00 | 0.00 | 0.00 | 69 | 1008.2 |
| 20260509211551 | 88 | 324 | 0.0 | 1.7 | 0.00 | 0.00 | 0.00 | 68 | 1008.3 |
| 20260509210052 | 88 | 104 | 1.7 | 4.3 | 0.00 | 0.00 | 0.00 | 66 | 1008.5 |
| 20260509204547 | 89 | 57 | 1.7 | 4.3 | 0.00 | 0.00 | 0.00 | 70 | 1008.7 |
| 20260509203054 | 87 | 81 | 0.9 | 2.6 | 0.00 | 0.00 | 0.00 | 70 | 1008.8 |
| 20260509201540 | 86 | 236 | 1.7 | 4.3 | 0.00 | 0.00 | 0.00 | 73 | 1009.1 |
| 20260509200040 | 86 | 77 | 0.9 | 4.3 | 0.00 | 0.00 | 0.00 | 72 | 1009.3 |
| 20260509194537 | 86 | 5 | 0.0 | 4.3 | 0.00 | 0.00 | 0.00 | 72 | 1009.5 |
| 20260509193033 | 86 | 51 | 1.7 | 5.2 | 0.00 | 0.00 | 0.00 | 75 | 1009.7 |
| 20260509191547 | 85 | 350 | 1.7 | 3.5 | 0.00 | 0.00 | 0.00 | 74 | 1009.6 |
| 20260509190032 | 84 | 360 | 0.0 | 5.2 | 0.00 | 0.00 | 0.00 | 75 | 1009.6 |
| 20260509184535 | 83 | 302 | 1.7 | 4.3 | 0.00 | 0.00 | 0.00 | 79 | 1009.9 |
| 20260509183030 | 82 | 246 | 3.5 | 6.1 | 0.00 | 0.00 | 0.00 | 80 | 1010.0 |
| 20260509181522 | 82 | 295 | 1.7 | 5.2 | 0.00 | 0.00 | 0.00 | 79 | 1010.3 |
| 20260509180021 | 82 | 226 | 2.6 | 5.2 | 0.00 | 0.01 | 0.00 | 78 | 1010.7 |
| 20260509174524 | 82 | 319 | 1.7 | 4.3 | 0.00 | 0.01 | 0.00 | 80 | 1010.8 |
| 20260509173019 | 81 | 216 | 1.7 | 6.1 | 0.00 | 0.01 | 0.00 | 82 | 1011.2 |
| 20260509171517 | 80 | 169 | 1.7 | 4.3 | 0.00 | 0.01 | 0.00 | 82 | 1011.4 |
| 20260509170022 | 80 | 262 | 1.7 | 6.1 | 0.00 | 0.02 | 0.00 | 84 | 1011.7 |
| 20260509164515 | 80 | 186 | 1.7 | 5.2 | 0.00 | 0.02 | 0.00 | 87 | 1011.5 |
| 20260509163012 | 78 | 297 | 0.0 | 3.5 | 0.00 | 0.02 | 0.00 | 89 | 1011.2 |
| 20260509161507 | 77 | 37 | 1.7 | 3.5 | 0.00 | 0.02 | 0.00 | 94 | 1011.2 |
| 20260509160004 | 76 | 101 | 1.7 | 3.5 | 0.00 | 0.02 | 0.00 | 98 | 1011.4 |
| 20260509154502 | 75 | 103 | 3.5 | 6.1 | 0.00 | 0.02 | 0.00 | 100 | 1011.3 |
| 20260509153117 | 75 | 114 | 0.9 | 5.2 | 0.00 | 0.02 | 0.00 | 100 | 1011.4 |
| 20260509151559 | 74 | 138 | 2.6 | 5.2 | 0.00 | 0.02 | 0.00 | 100 | 1011.1 |
| 20260509150058 | 74 | 107 | 1.7 | 3.5 | 0.00 | 0.02 | 0.00 | 100 | 1011.1 |
| 20260509144559 | 74 | 142 | 1.7 | 2.6 | 0.00 | 0.02 | 0.00 | 100 | 1011.0 |
| 20260509143056 | 74 | 326 | 0.9 | 4.3 | 0.00 | 0.02 | 0.00 | 100 | 1010.5 |
| 20260509141556 | 74 | 50 | 1.7 | 3.5 | 0.00 | 0.02 | 0.00 | 100 | 1009.8 |
| 20260509140100 | 74 | 74 | 0.9 | 2.6 | 0.00 | 0.02 | 0.00 | 100 | 1009.9 |
| 20260509134554 | 74 | 73 | 0.9 | 1.7 | 0.00 | 0.02 | 0.00 | 100 | 1010.5 |
| 20260509133053 | 73 | 73 | 0.9 | 2.6 | 0.00 | 0.02 | 0.00 | 100 | 1010.6 |
| 20260509131552 | 74 | 74 | 0.9 | 2.6 | 0.00 | 0.02 | 0.00 | 100 | 1011.1 |
| 20260509130104 | 73 | 150 | 1.7 | 4.3 | 0.00 | 0.02 | 0.00 | 100 | 1011.2 |
| 20260509124555 | 73 | 95 | 0.0 | 1.7 | 0.00 | 0.02 | 0.00 | 100 | 1011.3 |
| 20260509123052 | 73 | 95 | 0.9 | 1.7 | 0.00 | 0.02 | 0.00 | 100 | 1011.9 |
| 20260509121550 | 73 | 95 | 0.9 | 6.1 | 0.00 | 0.02 | 0.00 | 100 | 1011.1 |
| 20260509120147 | 73 | 72 | 1.7 | 3.5 | 0.00 | 0.02 | 0.00 | 100 | 1011.2 |
| 20260509114553 | 73 | 186 | 0.0 | 1.7 | 0.00 | 0.02 | 0.00 | 100 | 1011.3 |
| 20260509113053 | 73 | 186 | 2.6 | 3.5 | 0.00 | 0.02 | 0.00 | 100 | 1010.5 |
| 20260509111543 | 73 | 87 | 0.0 | 0.9 | 0.00 | 0.02 | 0.00 | 100 | 1010.8 |
| 20260509110042 | 73 | 87 | 0.9 | 2.6 | 0.00 | 0.02 | 0.00 | 100 | 1010.9 |
| 20260509104543 | 73 | 360 | 0.0 | 0.9 | 0.00 | 0.02 | 0.00 | 100 | 1010.9 |
| 20260509103048 | 73 | 360 | 0.0 | 2.6 | 0.00 | 0.02 | 0.00 | 100 | 1010.5 |
| 20260509101557 | 73 | 52 | 0.0 | 1.7 | 0.00 | 0.02 | 0.00 | 100 | 1010.4 |
| 20260509100041 | 73 | 52 | 0.0 | 1.7 | 0.00 | 0.02 | 0.00 | 100 | 1010.5 |
| 20260509094545 | 73 | 52 | 0.0 | 1.7 | 0.00 | 0.02 | 0.00 | 100 | 1010.2 |
| 20260509093039 | 73 | 52 | 0.0 | 1.7 | 0.00 | 0.02 | 0.00 | 100 | 1010.0 |
| 20260509091540 | 73 | 52 | 0.9 | 3.5 | 0.00 | 0.02 | 0.00 | 100 | 1009.8 |
| 20260509090045 | 73 | 152 | 0.9 | 1.7 | 0.00 | 0.02 | 0.00 | 100 | 1009.8 |
| 20260509084542 | 73 | 152 | 0.9 | 2.6 | 0.00 | 0.02 | 0.00 | 100 | 1010.0 |
| 20260509083050 | 73 | 152 | 0.0 | 1.7 | 0.00 | 0.02 | 0.00 | 100 | 1010.5 |
| 20260509081536 | 73 | 152 | 0.0 | 1.7 | 0.00 | 0.02 | 0.00 | 100 | 1010.4 |
| 20260509080039 | 73 | 152 | 0.0 | 2.6 | 0.00 | 0.02 | 0.00 | 100 | 1010.1 |
| 20260509074538 | 73 | 152 | 1.7 | 6.1 | 0.00 | 0.02 | 0.00 | 100 | 1010.0 |
| 20260509073035 | 73 | 148 | 3.5 | 7.8 | 0.00 | 0.02 | 0.00 | 100 | 1009.9 |
| 20260509071541 | 73 | 148 | 5.2 | 8.7 | 0.00 | 0.02 | 0.00 | 100 | 1010.0 |
| 20260509070031 | 73 | 136 | 5.2 | 7.8 | 0.00 | 0.02 | 0.00 | 99 | 1010.5 |
| 20260509064528 | 73 | 136 | 4.3 | 6.1 | 0.00 | 0.02 | 0.00 | 99 | 1010.5 |
| 20260509063024 | 73 | 124 | 2.6 | 6.1 | 0.00 | 0.02 | 0.00 | 99 | 1010.7 |